Snowfall_Accumulation
0.0 0.0 0.0 0.0 0.0 0.0 0.0 0.0 0.0 0.0 0.0 0.0 0.0 0.0 0.0 0.0 0.0 0.0 0.0 0.0 0.0 0.0 0.0 0.0 0.0 0.0 0.0 0.0 0.0 0.0 0.0 0.0 0.0 0.0 0.0 0.0 0.0 0.0 0.0 0.0 0.0 0.0 0.0
0.0 0.0 0.0 0.0 0.0 0.0 0.0 0.0 0.0 0.0 0.0 0.0 0.0 0.0 0.0 0.0 0.0 0.0 0.0 0.0 0.0 0.0 0.0 0.0 0.0 0.0 0.0 0.0 0.0 0.0 0.0 0.0 0.0 0.0 0.0 0.0 0.0 0.0 0.0 0.0 0.0 0.0 0.0
0.0 0.0 0.0 0.0 0.0 0.0 0.0 0.0 0.0 0.0 0.0 0.0 0.0 0.0 0.0 0.0 0.0 0.0 0.0 0.0 0.0 0.0 0.0 0.0 0.0 0.0 0.0 0.0 0.0 0.0 0.0 0.0 0.0 0.0 0.0 0.0 0.0 0.0 0.0 0.0 0.0 0.0 0.0
0.0 0.0 0.0 0.0 0.0 0.0 0.0 0.0 0.0 0.0 0.0 0.0 0.0 0.0 0.0 0.0 0.0 0.0 0.0 0.0 0.0 0.0 0.0 0.0 0.0 0.0 0.0 0.0 0.0 0.0 0.0 0.0 0.0 0.0 0.0 0.0 0.0 0.0 0.0 0.0 0.0 0.0 0.0
0.0 0.0 0.0 0.0 0.0 0.0 0.0 0.0 0.0 0.0 0.0 0.0 0.0 0.0 0.0 0.0 0.0 0.0 0.0 0.0 0.0 0.0 0.0 0.0 0.0 0.0 0.0 0.0 0.0 0.0 0.0 0.0 0.0 0.0 0.0 0.0 0.0 0.0 0.0 0.0 0.0 0.0 0.0
0.0 0.0 0.0 0.0 0.0 0.0 0.0 0.0 0.0 0.0 0.0 0.0 0.0 0.0 0.0 0.0 0.0 0.0 0.0 0.0 0.0 0.0 0.0 0.0 0.0 0.0 0.0 0.0 0.0 0.0 0.0 0.0 0.0 0.0 0.0 0.0 0.0 0.0 0.0 0.0 0.0 0.0 0.0
0.0 0.0 0.0 0.0 0.0 0.0 0.0 0.0 0.0 0.0 0.0 0.0 0.0 0.0 0.0 0.0 0.0 0.0 0.0 0.0 0.0 0.0 0.0 0.0 0.0 0.0 0.0 0.0 0.0 0.0 0.0 0.0 0.0 0.0 0.0 0.0 0.0 0.0 0.0 0.0 0.0 0.0 0.0
0.0 0.0 0.0 0.0 0.0 0.0 0.0 0.0 0.0 0.0 0.0 0.0 0.0 0.0 0.0 0.0 0.0 0.0 0.0 0.0 0.0 0.0 0.0 0.0 0.0 0.0 0.0 0.0 0.0 0.0 0.0 0.0 0.0 0.0 0.0 0.0 0.0 0.0 0.0 0.0 0.0 0.0 0.0
0.0 0.0 0.0 0.0 0.0 0.0 0.0 0.0 0.0 0.0 0.0 0.0 0.0 0.0 0.0 0.0 0.0 0.0 0.0 0.0 0.0 0.0 0.0 0.0 0.0 0.0 0.0 0.0 0.0 0.0 0.0 0.0 0.0 0.0 0.0 0.0 0.0 0.0 0.0 0.0 0.0 0.0 0.0
0.0 0.0 0.0 0.0 0.0 0.0 0.0 0.0 0.0 0.0 0.1 0.0 0.0 0.0 0.0 0.0 0.1 0.2 0.2 0.1 0.1 0.0 0.1 0.0 0.1 0.1 0.0 0.0 0.0 0.0 0.0 0.0 0.0 0.0 0.0 0.0 0.0 0.0 0.0 0.0 0.0 0.0 0.0
0.1 0.2 0.2 0.1 0.1 0.0 0.0 0.1 0.4 0.3 0.1 0.0 0.0 0.0 0.3 0.5 0.4 0.5 0.4 0.3 0.2 0.2 0.2 0.2 0.2 0.3 0.3 0.2 0.1 0.0 0.0 0.0 0.0 0.0 0.0 0.0 0.0 0.0 0.0 0.0 0.0 0.0 0.0
0.1 0.1 1.4 2.2 1.4 1.8 2.3 1.7 0.4 0.3 0.2 0.1 0.1 0.5 0.8 0.7 0.6 0.7 0.7 0.6 0.5 0.3 0.3 0.3 0.3 0.3 0.3 0.3 0.3 0.2 0.1 0.1 0.0 0.0 0.0 0.0 0.0 0.0 0.0 0.0 0.0 0.0 0.0
0.0 0.1 0.3 0.7 4.4 0.6 2.7 1.5 1.8 2.6 1.0 0.3 0.6 1.0 1.4 1.0 1.3 1.2 0.9 0.6 0.9 0.9 0.5 0.6 0.7 0.5 0.4 0.4 0.3 0.3 0.2 0.1 0.1 0.1 0.0 0.0 0.0 0.0 0.0 0.0 0.0 0.0 0.0
0.1 0.1 0.1 0.3 0.3 0.8 1.9 5.8 1.9 2.3 2.5 2.0 1.5 1.4 2.2 2.4 2.4 1.3 0.9 0.3 0.2 0.2 0.3 0.6 1.1 1.6 1.1 0.8 0.5 0.2 0.3 0.3 0.2 0.1 0.0 0.0 0.0 0.0 0.0 0.0 0.0 0.0 0.0
0.1 0.2 0.2 0.2 0.2 0.2 0.3 0.2 0.5 3.2 5.3 3.3 3.3 4.5 2.7 1.6 0.8 0.7 0.3 0.1 0.2 0.2 0.1 0.1 0.1 0.2 0.4 1.4 0.9 0.8 0.9 0.6 0.5 0.7 0.4 0.2 nan nan nan 0.0 0.0 0.0 0.0
0.1 0.2 0.1 0.1 0.1 0.1 0.2 0.1 0.2 1.2 1.0 4.6 6.3 3.1 2.3 2.7 1.6 0.9 0.5 0.4 0.3 0.7 2.5 0.7 0.6 1.4 0.4 nan nan 0.4 0.7 0.5 1.0 1.4 0.4 0.6 0.7 1.0 nan nan nan nan 0.1
0.1 0.1 0.1 0.1 0.1 0.1 0.1 0.1 0.1 0.3 0.3 1.4 6.5 4.7 4.1 7.0 4.6 1.2 1.5 1.8 2.8 1.9 2.1 2.6 2.3 3.5 3.2 nan nan nan 2.0 2.6 2.6 1.5 0.7 0.4 0.3 nan 0.1 nan nan nan nan
0.1 0.1 0.1 0.1 0.1 0.0 0.0 0.0 0.0 0.0 0.3 0.1 0.6 3.5 4.4 6.6 8.2 5.5 5.7 6.0 3.4 3.8 2.7 3.0 3.4 2.5 3.9 nan nan nan 5.4 4.6 4.9 5.3 4.3 3.1 2.9 2.4 0.4 0.4 1.3 1.9 1.9
0.3 1.0 0.4 0.2 0.1 0.1 0.0 0.0 0.0 0.0 0.0 0.1 0.1 0.2 2.1 5.0 5.1 6.8 7.7 5.9 5.7 5.7 5.5 2.9 3.3 3.1 2.5 nan nan 1.6 3.7 5.8 7.3 5.8 5.0 5.2 5.9 nan nan 4.5 5.4 5.6 9.1
1.5 1.1 1.1 0.1 0.5 0.5 0.1 1.2 1.0 0.3 0.5 0.5 0.2 0.1 0.1 0.3 0.9 1.9 4.4 4.3 2.6 4.5 3.4 3.5 3.3 nan 3.9 nan nan nan 1.4 2.5 3.5 3.1 3.5 nan 3.4 nan nan 2.7 3.6 6.1 12.9
4.2 1.8 2.3 2.6 2.6 2.1 1.1 2.4 4.6 4.6 2.8 1.8 0.3 0.5 0.3 0.3 0.3 0.2 0.4 0.5 0.5 0.7 1.4 2.0 2.5 2.5 2.3 2.7 nan nan 3.6 5.0 4.2 5.1 6.1 5.5 nan nan nan nan 5.1 11.5 12.0
2.6 5.0 5.1 5.1 3.9 3.2 3.0 2.9 3.1 6.0 5.3 4.1 4.2 3.5 2.6 1.8 1.1 1.0 0.9 0.7 0.4 0.5 0.7 0.5 0.6 1.0 0.8 nan nan nan nan nan 3.4 5.9 5.7 6.6 nan nan nan 3.7 nan nan 4.0
2.1 1.1 5.3 6.2 5.2 3.5 3.2 4.5 5.2 4.3 4.5 5.7 6.4 6.2 4.3 4.6 3.4 2.8 2.8 2.2 1.1 1.8 1.8 1.8 2.4 2.7 1.6 1.9 nan nan nan nan 3.0 4.3 8.3 nan nan nan 1.5 nan nan 3.4 6.3
0.2 0.1 0.3 2.8 5.1 5.8 3.0 2.8 3.3 3.5 3.7 4.0 4.2 5.4 6.5 4.7 5.2 3.8 3.7 4.0 3.8 4.3 4.3 4.1 5.1 4.5 4.0 4.0 3.5 3.7 3.6 1.9 4.1 1.8 4.5 3.2 3.8 3.0 4.3 4.7 5.6 6.1 6.1
0.2 0.1 0.2 0.2 0.9 0.6 2.1 2.3 2.0 1.4 1.0 1.2 2.2 1.2 1.1 2.1 2.8 4.0 4.1 3.4 5.3 4.1 3.8 5.4 5.6 9.1 10.4 11.9 8.3 8.4 7.3 5.9 5.5 3.9 5.3 4.7 3.8 3.9 4.0 3.9 4.1 3.4 3.3
0.0 0.0 0.0 0.0 0.0 0.1 0.1 0.1 0.1 0.1 0.4 0.2 0.8 1.4 1.4 1.6 1.8 2.1 2.8 nan nan nan nan nan 4.2 8.1 nan nan nan nan nan nan nan 3.7 6.2 10.7 10.7 7.6 5.7 6.1 5.6 4.9 3.9
Water_Equivalent
0.00 0.00 0.00 0.00 0.00 0.00 0.00 0.00 0.00 0.00 0.00 0.00 0.00 0.00 0.00 0.00 0.00 0.00 0.00 0.00 0.00 0.00 0.00 0.00 0.00 0.00 0.00 0.00 0.00 0.00 0.00 0.00 0.00 0.00 0.00 0.00 0.00 0.00 0.00 0.00 0.00 0.00 0.00
0.00 0.00 0.00 0.00 0.00 0.00 0.00 0.00 0.00 0.00 0.00 0.00 0.00 0.00 0.00 0.00 0.00 0.00 0.00 0.00 0.00 0.00 0.00 0.00 0.00 0.00 0.00 0.00 0.00 0.00 0.00 0.00 0.00 0.00 0.00 0.00 0.00 0.00 0.00 0.00 0.00 0.00 0.00
0.00 0.00 0.00 0.00 0.00 0.00 0.00 0.00 0.00 0.00 0.00 0.00 0.00 0.00 0.00 0.00 0.00 0.00 0.00 0.00 0.00 0.00 0.00 0.00 0.00 0.00 0.00 0.00 0.00 0.00 0.00 0.00 0.00 0.00 0.00 0.00 0.00 0.00 0.00 0.00 0.00 0.00 0.00
0.00 0.00 0.00 0.00 0.00 0.00 0.00 0.00 0.00 0.00 0.00 0.00 0.00 0.00 0.00 0.00 0.00 0.00 0.00 0.00 0.00 0.00 0.00 0.00 0.00 0.00 0.00 0.00 0.00 0.00 0.00 0.00 0.00 0.00 0.00 0.00 0.00 0.00 0.00 0.00 0.00 0.00 0.00
0.00 0.00 0.00 0.00 0.00 0.00 0.00 0.00 0.00 0.00 0.00 0.00 0.00 0.00 0.00 0.00 0.00 0.00 0.00 0.00 0.00 0.00 0.00 0.00 0.00 0.00 0.00 0.00 0.00 0.00 0.00 0.00 0.00 0.00 0.00 0.00 0.00 0.00 0.00 0.00 0.00 0.00 0.00
0.00 0.00 0.00 0.00 0.00 0.00 0.00 0.00 0.00 0.00 0.00 0.00 0.00 0.00 0.00 0.00 0.00 0.00 0.00 0.00 0.00 0.00 0.00 0.00 0.00 0.00 0.00 0.00 0.00 0.00 0.00 0.00 0.00 0.00 0.00 0.00 0.00 0.00 0.00 0.00 0.00 0.00 0.00
0.00 0.00 0.00 0.00 0.00 0.00 0.00 0.00 0.00 0.00 0.00 0.00 0.00 0.00 0.00 0.00 0.00 0.00 0.00 0.00 0.00 0.00 0.00 0.00 0.00 0.00 0.00 0.00 0.00 0.00 0.00 0.00 0.00 0.00 0.00 0.00 0.00 0.00 0.00 0.00 0.00 0.00 0.00
0.00 0.00 0.00 0.00 0.00 0.00 0.00 0.00 0.00 0.00 0.00 0.00 0.00 0.00 0.00 0.00 0.00 0.00 0.00 0.00 0.00 0.00 0.00 0.00 0.00 0.00 0.00 0.00 0.00 0.00 0.00 0.00 0.00 0.00 0.00 0.00 0.00 0.00 0.00 0.00 0.00 0.00 0.00
0.00 0.00 0.00 0.00 0.00 0.00 0.00 0.00 0.00 0.00 0.00 0.00 0.00 0.00 0.00 0.00 0.00 0.00 0.00 0.00 0.00 0.00 0.00 0.00 0.00 0.00 0.00 0.00 0.00 0.00 0.00 0.00 0.00 0.00 0.00 0.00 0.00 0.00 0.00 0.00 0.00 0.00 0.00
0.01 0.01 0.00 0.00 0.00 0.00 0.00 0.00 0.00 0.00 0.01 0.00 0.00 0.00 0.00 0.00 0.02 0.03 0.04 0.03 0.01 0.01 0.01 0.00 0.01 0.01 0.01 0.00 0.00 0.00 0.00 0.00 0.00 0.00 0.00 0.00 0.00 0.00 0.00 0.00 0.00 0.00 0.00
0.02 0.04 0.05 0.02 0.02 0.01 0.01 0.03 0.07 0.06 0.02 0.00 0.00 0.01 0.05 0.08 0.07 0.08 0.07 0.05 0.03 0.03 0.03 0.03 0.05 0.06 0.05 0.04 0.01 0.01 0.00 0.00 0.00 0.00 0.00 0.00 0.00 0.00 0.00 0.00 0.00 0.00 0.00
0.02 0.03 0.39 0.64 0.34 0.45 0.56 0.33 0.08 0.06 0.05 0.01 0.02 0.08 0.12 0.11 0.11 0.13 0.12 0.10 0.10 0.06 0.07 0.06 0.06 0.07 0.07 0.06 0.07 0.05 0.03 0.02 0.01 0.00 0.00 0.00 0.00 0.00 0.00 0.00 0.00 0.00 0.00
0.01 0.02 0.06 0.14 1.19 0.12 0.64 0.30 0.38 0.46 0.26 0.07 0.09 0.15 0.21 0.16 0.23 0.20 0.15 0.11 0.15 0.16 0.10 0.12 0.14 0.10 0.09 0.09 0.09 0.09 0.05 0.04 0.03 0.02 0.01 0.00 0.00 0.00 0.00 0.00 0.00 0.00 0.00
0.03 0.02 0.03 0.05 0.05 0.17 0.41 1.45 0.39 0.44 0.59 0.58 0.28 0.23 0.37 0.39 0.37 0.20 0.15 0.05 0.03 0.03 0.05 0.10 0.20 0.28 0.20 0.13 0.09 0.06 0.06 0.06 0.04 0.01 0.01 0.00 0.00 0.00 0.00 0.00 0.00 0.00 0.00
0.02 0.03 0.04 0.04 0.03 0.04 0.05 0.04 0.10 0.68 1.22 0.88 0.79 0.97 0.49 0.30 0.14 0.13 0.06 0.03 0.06 0.05 0.03 0.02 0.02 0.03 0.08 0.22 0.15 0.14 0.14 0.11 0.10 0.14 0.08 0.05 nan nan nan 0.00 0.00 0.00 0.00
0.02 0.03 0.02 0.01 0.02 0.02 0.04 0.02 0.03 0.23 0.21 0.80 1.18 0.59 0.53 0.83 0.39 0.20 0.10 0.08 0.05 0.16 0.59 0.14 0.14 0.30 0.09 nan nan 0.08 0.14 0.10 0.15 0.23 0.08 0.12 0.13 0.19 nan nan nan nan 0.02
0.02 0.01 0.02 0.02 0.02 0.02 0.01 0.02 0.03 0.06 0.07 0.28 1.40 1.16 0.92 1.83 0.85 0.24 0.31 0.37 0.73 0.56 0.41 0.54 0.52 0.74 0.59 nan nan nan 0.46 0.54 0.52 0.26 0.14 0.09 0.07 nan 0.02 nan nan nan nan
0.02 0.01 0.01 0.01 0.02 0.00 0.00 0.00 0.00 0.00 0.06 0.02 0.12 0.73 0.85 1.38 2.52 1.24 1.32 1.43 0.64 0.71 0.47 0.54 0.78 0.62 1.25 nan nan nan 1.27 0.93 0.91 1.16 0.80 0.61 0.52 0.50 0.10 0.10 0.26 0.36 0.35
0.05 0.18 0.06 0.04 0.02 0.02 0.01 0.00 0.00 0.00 0.00 0.02 0.03 0.03 0.50 0.95 1.07 1.55 2.02 1.78 1.63 1.59 1.39 0.67 0.73 0.79 0.61 nan nan 0.37 0.92 1.47 2.01 1.49 1.15 1.13 1.13 nan nan 0.91 1.01 1.07 1.94
0.33 0.21 0.25 0.03 0.13 0.13 0.02 0.27 0.20 0.07 0.10 0.09 0.05 0.02 0.02 0.06 0.21 0.41 0.97 1.20 0.71 1.26 0.97 1.08 0.93 nan 0.86 nan nan nan 0.41 0.49 0.73 0.73 0.92 nan 0.97 nan nan 0.55 0.59 0.97 2.29
0.99 0.44 0.61 0.53 0.49 0.59 0.34 0.52 1.12 0.88 0.59 0.46 0.07 0.12 0.07 0.09 0.08 0.07 0.11 0.13 0.14 0.19 0.33 0.47 0.57 0.51 0.40 0.53 nan nan 0.64 0.87 0.72 0.85 1.01 1.09 nan nan nan nan 0.90 1.95 2.33
0.48 1.18 0.81 0.91 0.72 0.80 0.89 0.77 0.69 1.67 1.40 0.94 0.85 0.74 0.56 0.43 0.28 0.24 0.26 0.20 0.13 0.16 0.21 0.14 0.18 0.28 0.20 nan nan nan nan nan 0.59 0.94 0.98 1.26 nan nan nan 0.84 nan nan 1.05
0.35 0.21 0.87 0.97 0.74 0.55 0.75 0.98 1.06 1.18 1.15 1.41 1.30 1.26 1.06 1.03 0.82 0.68 0.65 0.52 0.28 0.42 0.39 0.45 0.56 0.63 0.40 0.47 nan nan nan nan 0.62 0.91 1.63 nan nan nan 0.51 nan nan 1.13 1.54
0.04 0.03 0.05 0.36 0.70 0.87 0.47 0.50 0.63 0.65 0.95 0.82 0.77 1.09 1.16 0.96 0.93 0.79 0.79 0.79 0.78 0.87 0.92 0.82 0.94 0.91 0.85 0.88 0.82 0.90 0.90 0.58 0.94 0.52 1.07 1.05 0.96 1.01 1.22 1.13 1.10 1.17 1.21
0.04 0.03 0.03 0.04 0.13 0.10 0.32 0.39 0.37 0.29 0.20 0.23 0.43 0.23 0.22 0.37 0.47 0.60 0.61 0.53 0.74 0.65 0.61 0.84 0.91 1.46 1.60 1.93 1.63 1.73 1.45 1.24 1.24 1.03 1.18 0.95 0.71 0.68 0.67 0.66 0.68 0.59 0.56
0.00 0.00 0.00 0.00 0.00 0.01 0.02 0.01 0.01 0.02 0.08 0.05 0.17 0.29 0.30 0.32 0.33 0.36 0.46 nan nan nan nan nan 0.79 1.46 nan nan nan nan nan nan nan 0.75 1.05 1.62 1.61 1.07 0.77 0.84 0.77 0.68 0.64
SL_Ratio
nan nan nan nan nan nan nan nan nan nan nan nan nan nan nan nan nan nan nan nan nan nan nan nan nan nan nan nan nan nan nan nan nan nan nan nan nan nan nan nan nan nan nan
nan nan nan nan nan nan nan nan nan nan nan nan nan nan nan nan nan nan nan nan nan nan nan nan nan nan nan nan nan nan nan nan nan nan nan nan nan nan nan nan nan nan nan
nan nan nan nan nan nan nan nan nan nan nan nan nan nan nan nan nan nan nan nan nan nan nan nan nan nan nan nan nan nan nan nan nan nan nan nan nan nan nan nan nan nan nan
nan nan nan nan nan nan nan nan nan nan nan nan nan nan nan nan nan nan nan nan nan nan nan nan nan nan nan nan nan nan nan nan nan nan nan nan nan nan nan nan nan nan nan
nan nan nan nan nan nan nan nan nan nan nan nan nan nan nan nan nan nan nan nan nan nan nan nan nan nan nan nan nan nan nan nan nan nan nan nan nan nan nan nan nan nan nan
nan nan nan nan nan nan nan nan nan nan nan nan nan nan nan nan nan nan nan nan nan nan nan nan nan nan nan nan nan nan nan nan nan nan nan nan nan nan nan nan nan nan nan
nan nan nan nan nan nan nan nan nan nan nan nan nan nan nan nan nan nan nan nan nan nan nan nan nan nan nan nan nan nan nan nan nan nan nan nan nan nan nan nan nan nan nan
nan nan nan nan nan nan nan nan nan nan nan nan nan nan nan nan nan nan nan nan nan nan nan nan nan nan nan nan nan nan nan nan nan nan nan nan nan nan nan nan nan nan nan
nan nan nan nan nan nan nan nan nan nan nan nan nan nan nan nan nan nan nan 3.3 nan nan nan nan nan nan nan nan nan nan nan nan nan nan nan nan nan nan nan nan nan nan nan
3.8 3.8 4.0 3.3 nan nan nan nan nan 5.0 5.3 5.8 nan nan nan 5.6 5.7 5.7 5.7 5.3 5.3 4.8 5.5 6.7 5.9 5.8 5.7 5.6 nan nan nan nan nan nan nan nan nan nan nan nan nan nan nan
4.4 3.6 3.8 3.9 3.6 3.7 4.3 5.1 5.5 5.5 5.2 nan nan 5.8 5.9 5.9 5.7 5.7 5.4 5.2 5.0 4.9 5.0 5.1 5.4 5.7 5.7 5.5 4.5 3.9 10.0 nan nan nan nan nan nan nan nan nan nan nan nan
4.8 4.8 3.5 3.4 4.0 4.0 4.1 5.2 5.1 4.3 3.6 4.7 6.1 6.4 6.4 5.9 5.7 5.2 5.3 5.6 5.6 5.2 5.1 4.9 4.5 4.5 4.6 4.4 4.2 4.1 3.3 2.6 2.5 2.5 nan nan nan nan nan nan nan nan nan
4.8 5.2 4.9 5.1 3.7 5.2 4.2 4.8 4.7 5.5 4.0 4.5 6.3 6.5 6.6 6.2 5.7 6.1 5.8 5.3 5.8 5.7 5.4 5.3 5.1 4.7 4.3 4.0 3.7 3.2 3.7 2.7 2.6 2.5 2.9 3.3 0.0 nan nan nan nan nan nan
5.7 5.7 5.7 5.7 5.6 5.0 4.6 4.0 5.0 5.2 4.2 3.5 5.3 6.0 6.0 6.0 6.4 6.3 6.0 5.7 5.8 6.0 5.8 5.6 5.6 5.6 5.7 5.9 5.3 4.2 4.0 4.0 4.0 3.9 3.9 3.3 3.3 0.0 nan nan nan nan nan
6.1 6.1 6.2 6.0 5.9 5.7 5.5 5.0 4.7 4.7 4.3 3.8 4.1 4.6 5.5 5.4 5.2 5.8 5.5 4.2 4.2 4.5 4.0 4.3 4.3 5.0 5.6 6.1 6.0 5.9 6.1 6.1 5.4 5.5 5.4 4.5 nan nan nan 3.3 nan nan nan
6.1 6.0 5.7 5.7 5.5 5.1 5.2 4.6 5.1 5.3 4.9 5.8 5.3 5.2 4.3 3.2 4.1 4.4 5.3 4.7 4.9 4.3 4.2 4.8 4.5 4.9 4.5 nan nan 4.8 4.9 5.1 6.3 6.1 5.5 5.2 5.3 5.4 nan nan nan nan 5.8
5.8 6.0 5.6 5.5 5.3 5.1 5.2 5.2 5.0 4.7 4.8 5.1 4.6 4.1 4.5 3.8 5.4 5.2 4.7 4.9 3.9 3.4 5.2 4.8 4.5 4.7 5.4 nan nan nan 4.4 4.8 5.0 5.8 5.2 4.9 4.8 nan 4.2 nan nan nan nan
5.5 5.2 5.3 5.5 5.3 nan nan nan nan 4.3 4.9 4.9 5.1 4.8 5.1 4.8 3.3 4.4 4.3 4.2 5.4 5.4 5.7 5.6 4.4 4.1 3.1 nan nan nan 4.2 5.0 5.4 4.5 5.4 5.1 5.6 4.8 4.3 3.9 4.9 5.3 5.5
5.8 5.6 5.9 5.3 4.0 4.4 3.8 nan 3.3 nan 0.0 4.3 4.8 4.6 4.3 5.3 4.8 4.4 3.8 3.3 3.5 3.6 4.0 4.4 4.5 4.0 4.1 nan nan 4.3 4.0 4.0 3.6 3.9 4.3 4.6 5.2 nan nan 4.9 5.4 5.3 4.7
4.6 5.2 4.5 3.9 3.7 3.7 3.2 4.4 4.8 4.3 5.1 5.0 4.8 4.3 4.1 4.2 4.5 4.7 4.5 3.6 3.7 3.6 3.5 3.2 3.6 nan 4.6 nan nan nan 3.4 5.1 4.8 4.3 3.8 nan 3.5 nan nan 4.9 6.1 6.3 5.6
4.2 4.0 3.7 4.9 5.2 3.6 3.4 4.6 4.1 5.3 4.8 3.8 3.8 4.0 4.1 3.7 3.4 3.3 3.3 3.5 3.6 3.8 4.2 4.2 4.3 4.9 5.8 5.1 nan nan 5.6 5.7 5.8 6.0 6.0 5.1 nan nan nan nan 5.7 5.9 5.1
5.5 4.2 6.3 5.6 5.4 4.0 3.4 3.8 4.5 3.6 3.8 4.4 5.0 4.8 4.6 4.2 3.8 4.0 3.6 3.5 3.4 3.1 3.4 3.5 3.6 3.6 4.0 nan nan nan nan nan 5.7 6.3 5.8 5.3 nan nan nan 4.4 nan nan 3.8
6.1 5.3 6.1 6.4 7.0 6.4 4.3 4.6 4.9 3.6 3.9 4.0 4.9 4.9 4.1 4.4 4.1 4.2 4.3 4.3 4.1 4.2 4.7 4.0 4.2 4.3 3.9 4.1 nan nan nan nan 4.8 4.7 5.1 nan nan nan 3.0 nan nan 3.0 4.1
5.5 5.1 5.4 7.8 7.3 6.7 6.4 5.6 5.2 5.3 3.9 4.9 5.4 4.9 5.6 4.9 5.5 4.8 4.7 5.0 5.0 5.0 4.7 5.0 5.4 5.0 4.7 4.6 4.2 4.2 4.0 3.4 4.4 3.5 4.2 3.0 4.0 3.0 3.6 4.1 5.1 5.2 5.1
5.5 5.2 5.6 5.7 6.5 5.7 6.4 5.9 5.4 4.9 5.1 5.3 5.0 5.1 5.0 5.7 6.1 6.7 6.7 6.3 7.2 6.3 6.2 6.5 6.2 6.3 6.5 6.2 5.1 4.8 5.0 4.8 4.4 3.8 4.5 4.9 5.3 5.8 6.0 6.0 6.0 5.9 6.0
0.0 nan 5.0 5.0 5.0 5.2 5.1 4.8 4.8 4.4 4.9 5.0 5.0 4.8 4.5 4.9 5.5 5.7 6.0 nan nan nan nan nan 5.3 5.5 nan nan nan nan nan nan nan 4.9 5.9 6.6 6.6 7.1 7.3 7.2 7.3 7.2 6.1